Вернуться в каталог

COSMOS 1795

АктивенВоенныеLEO
NORAD 17139·PAYLOAD·🇷🇺 Russia

Запущен Nov 21, 1986 с Plesetsk Cosmodrome

Loading…

Ближайшие Пролёты (ближайшие 24 часа)

TLE

СвежийSource: Space-Track

Эпоха: Sep 14, 2026, 12:31 UTC

1 17139U 86092B   26257.52177372 -.00000021  00000-0 -32778-4 0  9998
2 17139  74.0108 276.3990 0009290  64.2512  89.3713 12.47817039813688

Отслеживайте COSMOS 1795 в реальном времени с AllMySat

Download on the App Store